Kalispell, MT

4:57 AM MDT on June 24, 2017 (GMT -0600)
Glacier Park International

Weather History for KGPI - September, 2012

Change the Weather History Date:

Thursday, September 6, 2012

  Actual Average Record
Temperature  
Mean Temperature 55 °F 58 °F  
Max Temperature 68 °F 74 °F 93 °F (1998)
Min Temperature 42 °F 42 °F 27 °F (1969)
Degree Days  
Heating Degree Days 10 7  
Month to date heating degree days 50 40  
Since 1 July heating degree days 168 210  
Cooling Degree Days 0 0  
Month to date cooling degree days 0 1  
Year to date cooling degree days 192 144  
Growing Degree Days 6 (Base 50)    
Moisture  
Dew Point 46 °F    
Average Humidity 68    
Maximum Humidity 93    
Minimum Humidity 42    
Precipitation  
Precipitation 0.44 in 0.05 in 0.95 in (1927)
Month to date precipitation 0.44 0.29  
Year to date precipitation 14.95 11.90  
Snow  
Snow 0.00 in - - ()
Month to date snowfall 0.0  
Year to date snowfall 25.1  
Since 1 July snowfall 0.0  
Snow Depth 0.00 in    
Sea Level Pressure  
Sea Level Pressure 30.11 in    
Wind  
Wind Speed 6 mph (NNW)    
Max Wind Speed 21 mph    
Max Gust Speed 25 mph    
Visibility 9 miles    
Events Rain    
T = Trace of Precipitation, MM = Missing Value Source: NWS Daily Summary

Daily Weather History Graph

Daily Weather History Graph

Search for Another Location

Airport or City:

Trip Planner

Search our weather history database for the weather conditions in past years. The results will help you decide how hot, cold, wet, or windy it might be!

Date:

Astronomy

Sep. 06, 2012 Rise Set
Actual Time 7:02 AM MDT 8:07 PM MDT
Civil Twilight 6:30 AM MDT 8:38 PM MDT
Nautical Twilight 5:51 AM MDT 9:17 PM MDT
Astronomical Twilight 5:10 AM MDT 9:57 PM MDT
Moon 10:47 PM MDT (9/6) 1:38 PM MDT (9/6)
Length of Visible Light 14h 08m
Length of Day
13h 04m
Waning Gibbous, 67% of the Moon is Illuminated
Sep 6
Waning Gibbous
Sep 8
Last Quarter
Sep 15
New
Sep 22
First Quarter
Sep 29
Full

Hourly Weather History & Observations

Time (MDT) Temp. Dew Point Humidity Pressure Visibility Wind Dir Wind Speed Gust Speed Precip Events Conditions
12:55 AM 55.9 °F 46.0 °F 69% 29.96 in 10.0 mi Variable 5.8 mph - N/A   Overcast
1:55 AM 53.1 °F 48.0 °F 83% 29.98 in 10.0 mi NNW 8.1 mph - 0.00 in Rain Light Rain
2:55 AM 52.0 °F 48.0 °F 86% 30.03 in 10.0 mi NW 8.1 mph - 0.00 in Rain Light Rain
3:30 AM 50.0 °F 48.2 °F 94% 30.08 in 2.5 mi WNW 11.5 mph 18.4 mph 0.12 in Rain Heavy Rain
3:55 AM 48.9 °F 46.9 °F 93% 30.05 in 4.0 mi North 15.0 mph - 0.25 in Rain Heavy Rain
4:55 AM 48.9 °F 46.0 °F 90% 30.05 in 10.0 mi North 9.2 mph 16.1 mph 0.03 in   Mostly Cloudy
5:55 AM 50.0 °F 46.0 °F 86% 30.06 in 10.0 mi NNE 12.7 mph - N/A   Overcast
6:55 AM 50.0 °F 45.0 °F 83% 30.07 in 10.0 mi North 11.5 mph - N/A   Overcast
7:55 AM 50.0 °F 45.0 °F 83% 30.11 in 8.0 mi North 8.1 mph - 0.04 in Rain Rain
8:55 AM 48.9 °F 46.0 °F 90% 30.14 in 6.0 mi NNW 4.6 mph - 0.07 in Rain Rain
9:55 AM 51.1 °F 48.9 °F 92% 30.13 in 10.0 mi West 4.6 mph - 0.05 in Rain Light Rain
10:55 AM 53.1 °F 50.0 °F 89% 30.14 in 10.0 mi NW 3.5 mph - 0.00 in   Overcast
11:55 AM 57.9 °F 48.9 °F 72% 30.15 in 10.0 mi NW 3.5 mph - N/A   Overcast
12:55 PM 60.1 °F 50.0 °F 69% 30.14 in 10.0 mi WNW 5.8 mph - N/A   Overcast
1:55 PM 62.1 °F 50.0 °F 65% 30.15 in 10.0 mi NW 3.5 mph - N/A   Overcast
2:55 PM 64.0 °F 45.0 °F 50% 30.15 in 10.0 mi NE 8.1 mph - N/A   Overcast
3:55 PM 64.0 °F 44.1 °F 48% 30.15 in 10.0 mi NE 9.2 mph - N/A   Overcast
4:55 PM 66.0 °F 43.0 °F 43% 30.14 in 10.0 mi NE 3.5 mph - N/A   Clear
5:55 PM 63.0 °F 44.1 °F 50% 30.14 in 10.0 mi North 5.8 mph - N/A   Clear
6:55 PM 64.9 °F 46.0 °F 50% 30.13 in 10.0 mi WNW 3.5 mph - N/A   Partly Cloudy
7:55 PM 60.1 °F 45.0 °F 57% 30.14 in 10.0 mi North 4.6 mph - N/A   Clear
8:55 PM 53.1 °F 45.0 °F 74% 30.17 in 10.0 mi West 5.8 mph - N/A   Clear
9:55 PM 48.9 °F 44.1 °F 83% 30.19 in 10.0 mi Calm Calm - N/A   Clear
10:55 PM 46.9 °F 44.1 °F 90% 30.20 in 10.0 mi WNW 3.5 mph - N/A   Clear
11:55 PM 44.1 °F 42.1 °F 93% 30.21 in 10.0 mi Calm Calm - N/A   Clear